TimeMST,TemperatureF,Dew PointF,Humidity,Sea Level PressureIn,VisibilityMPH,Wind Direction,Wind SpeedMPH,Gust SpeedMPH,PrecipitationIn,Events,Conditions,WindDirDegrees,DateUTC
12:53 AM,43.0,14.0,31,29.84,10.0,SSW,15.0,-,N/A,,Clear,200,2012-11-08 07:53:00
1:53 AM,46.9,14.0,27,29.81,10.0,SW,6.9,-,N/A,,Clear,220,2012-11-08 08:53:00
2:53 AM,48.9,12.9,24,29.80,10.0,West,4.6,-,N/A,,Clear,270,2012-11-08 09:53:00
3:53 AM,48.0,12.0,24,29.81,10.0,WNW,5.8,-,N/A,,Clear,300,2012-11-08 10:53:00
4:53 AM,48.9,10.9,22,29.84,10.0,Calm,Calm,-,N/A,,Clear,0,2012-11-08 11:53:00
5:53 AM,53.1,10.0,18,29.86,10.0,Calm,Calm,-,N/A,,Clear,0,2012-11-08 12:53:00
6:53 AM,51.1,9.0,18,29.87,10.0,Calm,Calm,-,N/A,,Clear,0,2012-11-08 13:53:00
7:53 AM,55.0,12.0,18,29.88,10.0,East,9.2,-,N/A,,Clear,100,2012-11-08 14:53:00
8:53 AM,60.1,12.9,16,29.88,10.0,SSE,5.8,-,N/A,,Clear,150,2012-11-08 15:53:00
10:53 AM,64.0,10.9,13,29.86,10.0,SE,5.8,-,N/A,,Clear,140,2012-11-08 17:53:00
11:53 AM,68.0,23.0,18,29.81,10.0,West,18.4,26.5,N/A,,Clear,270,2012-11-08 18:53:00
12:53 PM,66.0,23.0,20,29.80,10.0,SW,24.2,29.9,N/A,,Clear,230,2012-11-08 19:53:00
1:53 PM,64.0,23.0,21,29.80,10.0,WSW,21.9,-,N/A,,Clear,240,2012-11-08 20:53:00
2:53 PM,63.0,21.9,21,29.79,10.0,SW,18.4,24.2,N/A,,Clear,230,2012-11-08 21:53:00
3:53 PM,64.9,21.9,19,29.78,10.0,West,21.9,26.5,N/A,,Clear,260,2012-11-08 22:53:00
4:53 PM,60.1,21.0,22,29.80,10.0,WSW,18.4,21.9,N/A,,Clear,250,2012-11-08 23:53:00
5:53 PM,55.0,24.1,30,29.82,10.0,West,12.7,-,N/A,,Clear,260,2012-11-09 00:53:00
6:53 PM,48.9,23.0,36,29.84,10.0,SSW,8.1,-,N/A,,Clear,200,2012-11-09 01:53:00
7:53 PM,50.0,23.0,35,29.81,10.0,South,9.2,-,N/A,,Clear,180,2012-11-09 02:53:00
8:53 PM,46.9,21.0,36,29.81,10.0,South,11.5,-,N/A,,Clear,190,2012-11-09 03:53:00
9:53 PM,46.0,21.9,39,29.79,10.0,South,11.5,-,N/A,,Clear,190,2012-11-09 04:53:00
10:53 PM,45.0,21.9,40,29.79,10.0,South,12.7,-,N/A,,Clear,180,2012-11-09 05:53:00
11:53 PM,45.0,21.9,40,29.75,10.0,South,9.2,-,N/A,,Clear,180,2012-11-09 06:53:00